Location: Beetenbrück
(52.8113°N, 9.5946°E)
Time: 17:37:11
(UTC+00:00)

Cosmos 2084 Rocket - Pass Details

Date: 14 April 2026
Orbit: 531 x 579 km, 62.8° (Epoch: 9 May)

Event Time Altitude Azimuth Distance (km) Brightness Sun altitude
Exits shadow 21:26:01 69° 244° (WSW) 588 3.3 -22.8°
Maximum altitude 21:26:28 84° 318° (NW) 557 3.2 -22.8°
Drops below altitude 10° 21:30:37 10° 47° (NE) 1,841 6.1 -23.2°
Sets 21:32:52 0° 49° (NE) 2,748 7.0 -23.3°
